Location: Pescara
(42.4765°N, 14.1734°E)
Time: 10:19:37
(UTC+01:00)

ISS - Visible Passes

Search period start: 21 February 2018 00:00
Search period end: 03 March 2018 00:00
Orbit: 402 x 407 km, 51.6° (Epoch: 21 February)

Date Brightness Start Highest point End Pass type
(mag) Time Alt. Az. Time Alt. Az. Time Alt. Az.
25 Feb -0.7 05:41:09 10° SSE 05:42:28 12° SE 05:43:49 10° ESE visible
27 Feb -1.9 05:31:13 10° SSW 05:34:04 27° SE 05:36:55 10° ENE visible
28 Feb -1.2 04:40:50 13° SSE 04:41:57 15° SE 04:43:55 10° E visible
01 Mar -3.6 05:23:48 22° SW 05:25:45 66° SE 05:29:00 10° ENE visible
02 Mar -2.3 04:33:54 32° ESE 04:33:54 32° ESE 04:36:30 10° ENE visible
02 Mar -2.9 06:06:55 10° W 06:09:58 35° NNW 06:13:01 10° NE visible
